Regional Weather Roundup
Issued by NWS

Home | Current Version | Previous Version | Text Only | Print | Product List | Glossary Off
Versions: 1 2 3 4 5 6 7 8 9 10 11 12 13 14 15 16 17 18 19 20 21 22 23 24 25 26 27 28 29 30 31 32 33 34 35 36 37 38 39 40 41 42 43 44 45 46 47 48 49 50

000
ASUS43 KBIS 261602
RWRND

NORTH DAKOTA REGIONAL WEATHER ROUNDUP
NATIONAL WEATHER SERVICE BISMARCK ND
1100 AM CDT FRI AUG 26 2016

NOTE: "FAIR" INDICATES FEW OR NO CLOUDS BELOW 12,000 FEET WITH NO
SIGNIFICANT WEATHER AND/OR OBSTRUCTIONS TO VISIBILITY.


NDZ001>003-009>011-017-261700-
NORTHWEST NORTH DAKOTA

CITY           SKY/WX    TMP DP  RH WIND       PRES   REMARKS
WILLISTON      PTSUNNY   64  44  48 S7        30.04F
MINOT          CLOUDY    70  48  45 SW13      30.03F
MINOT AFB      CLOUDY    70  46  42 SW12      30.02S
$$

NDZ018>021-031>035-040>046-261700-
SOUTHWEST NORTH DAKOTA

CITY           SKY/WX    TMP DP  RH WIND       PRES   REMARKS
BISMARCK       CLOUDY    60  51  72 SE6       30.12R
DICKINSON      SUNNY     68  42  38 S15       30.07F
GARRISON         N/A     66  50  56 W7        30.07S
HETTINGER ARPT SUNNY     65  49  56 S7        30.11F
$$

NDZ004>008-012>016-024-026-027-054-261700-
NORTHEAST NORTH DAKOTA

CITY           SKY/WX    TMP DP  RH WIND       PRES   REMARKS
GRAND FORKS    MOSUNNY   68  54  60 SE10      30.06F
GRND FRKS AFB  SUNNY     70  55  58 S6        30.07S
DEVILS LAKE    CLOUDY    65  51  60 SW8       30.07S
$$

NDZ022-023-025-028>030-036>039-047>053-261700-
SOUTHEAST NORTH DAKOTA

CITY           SKY/WX    TMP DP  RH WIND       PRES   REMARKS
FARGO          SUNNY     69  52  54 SW7       30.11F
JAMESTOWN      MOSUNNY   65  52  62 W10       30.11R
$$





USA.gov is the U.S. government's official web portal to all federal, state and local government web resources and services.